Content
SEND FEEDBACK

Daily
Averages
Monthly
Summary
United States of America

PUT IN BAY, OHIO


Home > North America > United States > Ohio
Elevation: 171 meters     Latitude: 41 39N     Longitude: 082 48W

WEATHER
 
SELECT A DAY
Number of Records: 122,499;   Date Range: 12/10/00 - 7/23/14
 
SHARE

PRINT THIS DATA

[ ← Previous Day ]
WEATHER ALMANAC - 4 FEBRUARY, 2013
[ Next Day → ]
[ °F ]   °C
Weather ElementAverageHighLow
Temperature-7.1 °C-5.9 °C (4:00 pm)-8.3 °C (1:00 am)
Dewpoint-9.2 °C-7.6 °C (3:00 pm)-14.4 °C (1:00 am)
Humidity84.3 %92 % (8:00 pm)49 % (1:00 am)
Barometer1015.6 hPa1017.9 hPa (1:00 am)1013.2 hPa (4:00 pm)
Wind Speed5.5 km/h11.1 km/h (11:00 am)
Weather ElementAverage
Wind DirectionSSE (155.8 °)

Weather ElementTotal
Precipitation1.52 mm
Heating Degree Days25.4 (Base 18.3)
Averaged from 25 records on 4 February, 2013
WEATHER CONDITIONS BREAKOUT
WIND DIRECTION BREAKOUT
WEATHER BY HOUR - 4 FEBRUARY, 2013
[ °F ]   °C
Local TimeTemperatureDewpointHumidityBarometerVisibilityWind DirectionWind SpeedGust SpeedPrecipitationEventsConditions
1:00 AM-8.3 °C-14.4 °C49 %1017.9 hPaWest (270°)7.4 km/h
1:00 AM-8.3 °C-14.4 °C62 %1017.9 hPaWest (270°)7.4 km/h
2:00 AM-7.8 °C-12.3 °C71 %1017.9 hPaWNW (290°)7.4 km/h
3:00 AM-7.7 °C-11.3 °C76 %1017.9 hPaWest (280°)7.4 km/h
4:00 AM-7.8 °C-10.7 °C80 %1017.6 hPaWest (280°)5.6 km/h
6:00 AM-8.1 °C-10.1 °C86 %1017.3 hPaSouth (190°)3.7 km/h
7:00 AM-8.3 °C-10.1 °C87 %1016.9 hPaCalm
7:00 AM-8.3 °C-10 °C82 %1016.9 hPaCalm
9:00 AM-7.3 °C-8.9 °C89 %1016.9 hPaCalm0.25 mm
10:00 AM-6.7 °C-8 °C91 %1016.6 hPaSW (230°)9.3 km/h0.51 mm
11:00 AM-6.4 °C-7.9 °C89 %1016.6 hPaSW (230°)11.1 km/h0.51 mm
12:00 PM-6.2 °C-7.8 °C89 %1015.9 hPaSW (230°)9.3 km/h
1:00 PM-6 °C-7.9 °C87 %1014.9 hPaSSW (210°)7.4 km/h
1:00 PM-6.1 °C-7.8 °C82 %1014.9 hPaSSW (210°)7.4 km/h
2:00 PM-6.2 °C-7.8 °C89 %1013.9 hPaSouth (180°)7.4 km/h
3:00 PM-6.1 °C-7.6 °C89 %1013.5 hPaSouth (170°)5.6 km/h0.25 mm
4:00 PM-5.9 °C-7.6 °C88 %1013.2 hPaSE (130°)1.9 km/h
5:00 PM-6.3 °C-7.9 °C89 %1013.2 hPaSouth (170°)3.7 km/h
6:00 PM-6.6 °C-8 °C90 %1013.2 hPaESE (120°)1.9 km/h
7:00 PM-6.8 °C-8 °C91 %1013.2 hPaNE (50°)3.7 km/h
7:00 PM-6.7 °C-7.8 °C86 %1013.2 hPaNE (50°)3.7 km/h
8:00 PM-7.2 °C-8.3 °C92 %1013.5 hPaENE (60°)5.6 km/h
9:00 PM-7.4 °C-8.6 °C91 %1013.9 hPaNE (40°)5.6 km/h
10:00 PM-7.7 °C-9 °C91 %1014.6 hPaNNE (30°)7.4 km/h
11:00 PM-7.7 °C-9 °C91 %1013.9 hPaNE (50°)5.6 km/h
Hourly data recorded from CXHA, located 0 kilometers away from Put In Bay, Ohio







STORIES FROM OUR PARTNERS